Location: Spring Creek
(38.2870°N, 100.2160°W)
Time: 11:10:09
(UTC+00:00)

CZ-2C R/B - Pass Details

Date: 08 May 2021
Orbit: 668 x 783 km, 98.2° (Epoch: 22 June)

Event Time Altitude Azimuth Distance (km) Brightness Sun altitude
Rises 10:33:06 0° 11° (N) 3,217 6.4 -11.7°
Reaches altitude 10° 10:35:23 10° 10° (N) 2,302 5.6 -11.4°
Maximum altitude 10:40:29 80° 284° (WNW) 791 2.5 -10.5°
Drops below altitude 10° 10:45:38 10° 198° (SSW) 2,328 4.6 -9.7°
Enters shadow 10:47:12 - 198° (SSW) 2,954 5.1 -9.4°
